Spencer, IA

1:02 PM CST on December 16, 2017 (GMT -0600)
Spencer Municipal

Weather History for KSPW - May, 2013

Change the Weather History Date:

Wednesday, May 15, 2013

  Actual Average Record
Temperature  
Mean Temperature 68 °F -  
Max Temperature 84 °F 71 °F 93 °F (2001)
Min Temperature 54 °F 46 °F 28 °F (1997)
Cooling Degree Days 3    
Growing Degree Days 18 (Base 50)    
Moisture  
Dew Point 43 °F    
Average Humidity 41    
Maximum Humidity 62    
Minimum Humidity 25    
Precipitation  
Precipitation 0.00 in - - ()
Sea Level Pressure  
Sea Level Pressure 29.87 in    
Wind  
Wind Speed 11 mph (NE)    
Max Wind Speed 21 mph    
Max Gust Speed 32 mph    
Visibility 10 miles    
Events      
Averages and records for this station are not official NWS values.
T = Trace of Precipitation, MM = Missing Value Source: NWS Daily Summary

Daily Weather History Graph

Daily Weather History Graph

Search for Another Location

Airport or City:

Trip Planner

Search our weather history database for the weather conditions in past years. The results will help you decide how hot, cold, wet, or windy it might be!

Date:

Astronomy

May. 15, 2013 Rise Set
Actual Time 5:56 AM CDT 8:38 PM CDT
Civil Twilight 5:24 AM CDT 9:11 PM CDT
Nautical Twilight 4:42 AM CDT 9:52 PM CDT
Astronomical Twilight 3:55 AM CDT 10:39 PM CDT
Moon 10:34 AM CDT (5/15) 12:23 AM CDT (5/15)
Length of Visible Light 15h 47m
Length of Day
14h 41m
Waxing Crescent, 27% of the Moon is Illuminated
May 15
Waxing Crescent
May 17
First Quarter
May 24
Full
May 31
Last Quarter
Jun 8
New

Hourly Weather History & Observations

Time (CDT) Temp. Dew Point Humidity Pressure Visibility Wind Dir Wind Speed Gust Speed Precip Events Conditions
12:53 AM 66.9 °F 42.1 °F 40% 29.78 in 10.0 mi North 20.7 mph 32.2 mph N/A   Clear
1:53 AM 63.0 °F 43.0 °F 48% 29.80 in 10.0 mi North 12.7 mph - N/A   Clear
2:53 AM 60.1 °F 43.0 °F 53% 29.81 in 10.0 mi North 11.5 mph - N/A   Clear
3:53 AM 57.0 °F 43.0 °F 59% 29.82 in 10.0 mi North 9.2 mph - N/A   Clear
4:53 AM 55.9 °F 42.1 °F 60% 29.85 in 10.0 mi North 5.8 mph - N/A   Clear
5:53 AM 54.0 °F 41.0 °F 62% 29.86 in 10.0 mi NNE 8.1 mph - N/A   Clear
6:53 AM 57.9 °F 42.1 °F 56% 29.89 in 10.0 mi NNE 13.8 mph - N/A   Clear
7:53 AM 63.0 °F 42.1 °F 46% 29.91 in 10.0 mi NNE 13.8 mph - N/A   Clear
8:53 AM 66.9 °F 39.9 °F 37% 29.96 in 10.0 mi NNE 11.5 mph - N/A   Partly Cloudy
9:53 AM 71.1 °F 37.9 °F 30% 29.95 in 10.0 mi NE 9.2 mph - N/A   Clear
10:53 AM 73.9 °F 37.9 °F 27% 29.94 in 10.0 mi NE 9.2 mph - N/A   Clear
11:53 AM 73.0 °F 39.9 °F 30% 29.95 in 10.0 mi NE 5.8 mph - N/A   Partly Cloudy
12:53 PM 75.9 °F 42.1 °F 30% 29.90 in 10.0 mi NE 10.4 mph - N/A   Clear
1:53 PM 79.0 °F 41.0 °F 26% 29.87 in 10.0 mi Calm Calm - N/A   Clear
2:53 PM 79.0 °F 39.9 °F 25% 29.87 in 10.0 mi Variable 3.5 mph - N/A   Clear
3:53 PM 82.0 °F 43.0 °F 25% 29.86 in 10.0 mi Variable 4.6 mph - N/A   Clear
4:53 PM 79.0 °F 46.0 °F 31% 29.86 in 10.0 mi NNE 16.1 mph 23.0 mph N/A   Partly Cloudy
5:53 PM 77.0 °F 46.0 °F 33% 29.86 in 10.0 mi NNE 13.8 mph - N/A   Mostly Cloudy
6:53 PM 77.0 °F 45.0 °F 32% 29.86 in 10.0 mi NE 8.1 mph - N/A   Mostly Cloudy
7:53 PM 73.9 °F 46.9 °F 38% 29.86 in 10.0 mi NE 6.9 mph - N/A   Partly Cloudy
8:53 PM 70.0 °F 46.0 °F 42% 29.87 in 10.0 mi East 4.6 mph - N/A   Partly Cloudy
9:53 PM 66.0 °F 46.0 °F 48% 29.87 in 10.0 mi ESE 5.8 mph - N/A   Scattered Clouds
10:53 PM 62.1 °F 46.0 °F 56% 29.88 in 10.0 mi SE 3.5 mph - N/A   Clear
11:53 PM 59.0 °F 45.0 °F 60% 29.89 in 9.0 mi Calm Calm - N/A   Clear